datetime,avg net radiation
2004-10-20,257.0
2004-10-21,245.0
2004-10-22,76.0
2004-10-23,197.0
2004-10-24,260.0
2004-10-25,239.0
2004-10-26,200.0
2004-10-27,120.0
2004-10-28,277.0
2004-10-29,268.0
2004-10-30,249.0
2004-10-31,295.0
2004-11-01,277.0
2004-11-02,222.0
2004-11-03,83.0
2004-11-04,286.0
2004-11-05,280.0
2004-11-06,274.0
2004-11-07,274.0
2004-11-08,258.0
2004-11-09,161.0
2004-11-10,85.0
2004-11-11,195.0
2004-11-12,183.0
2004-11-13,208.0
2004-11-14,182.0
2004-11-15,128.0
2004-11-16,183.0
2004-11-17,175.0
2004-11-18,136.0
2004-11-19,234.0
2004-11-20,225.0
2004-11-21,228.0
2004-11-22,161.0
2004-11-23,211.0
2004-11-24,179.0
2004-11-25,60.0
2004-11-26,86.0
2004-11-27,149.0
2004-11-28,223.0
2004-11-29,192.0
2004-11-30,129.0
2004-12-01,119.0
2004-12-02,181.0
2004-12-03,202.0
2004-12-04,111.0
2004-12-05,91.0
2004-12-06,46.0
2004-12-07,157.0
2004-12-08,21.0
2004-12-09,78.0
2004-12-10,108.0
2004-12-11,65.0
2004-12-12,120.0
2004-12-13,157.0
2004-12-14,166.0
2004-12-15,132.0
2004-12-16,196.0
2004-12-17,172.0
2004-12-18,190.0
2004-12-19,194.0
2004-12-20,117.0
2004-12-21,194.0
2004-12-22,187.0
2004-12-23,181.0
2004-12-24,199.0
2004-12-25,195.0
2004-12-26,107.0
2004-12-27,124.0
2004-12-28,86.0
2004-12-29,149.0
2004-12-30,129.0
2004-12-31,118.0
2005-01-01,97.0
2005-01-02,94.0
2005-01-03,193.0
2005-01-04,89.0
2005-01-05,193.0
2005-01-06,138.0
2005-01-07,57.0
2005-01-08,124.0
2005-01-09,113.0
2005-01-10,165.0
2005-01-11,211.0
2005-01-12,211.0
2005-01-13,151.0
2005-01-14,130.0
2005-01-15,94.0
2005-01-16,163.0
2005-01-17,140.0
2005-01-18,157.0
2005-01-19,226.0
2005-01-20,157.0
2005-01-21,206.0
2005-01-22,245.0
2005-01-23,244.0
2005-01-24,242.0
2005-01-25,99.0
2005-01-26,94.0
2005-01-27,122.0
2005-01-28,119.0
2005-01-29,247.0
2005-01-30,225.0
2005-01-31,165.0
2005-02-01,254.0
2005-02-02,273.0
2005-02-03,282.0
2005-02-04,149.0
2005-02-05,226.0
2005-02-06,123.0
2005-02-07,239.0
2005-02-08,264.0
2005-02-09,282.0
2005-02-10,312.0
2005-02-11,252.0
2005-02-12,225.0
2005-02-13,67.0
2005-02-14,291.0
2005-02-15,307.0
2005-02-16,332.0
2005-02-17,308.0
2005-02-18,294.0
2005-02-19,174.0
2005-02-20,149.0
2005-02-21,314.0
2005-02-22,317.0
2005-02-23,359.0
2005-02-24,370.0
2005-02-25,353.0
2005-02-26,350.0
2005-02-27,220.0
2005-02-28,192.0
2005-03-01,208.0
2005-03-02,270.0
2005-03-03,371.0
2005-03-04,370.0
2005-03-05,391.0
2005-03-06,406.0
2005-03-07,417.0
2005-03-08,430.0
2005-03-09,373.0
2005-03-10,431.0
2005-03-11,457.0
2005-03-12,445.0
2005-03-13,466.0
2005-03-14,468.0
2005-03-15,447.0
2005-03-16,195.0
2005-03-17,359.0
2005-03-18,260.0
2005-03-19,216.0
2005-03-20,190.0
2005-03-21,287.0
2005-03-22,138.0
2005-03-23,311.0
2005-03-24,371.0
2005-03-25,463.0
2005-03-26,165.0
2005-03-27,53.0
2005-03-28,381.0
2005-03-29,414.0
2005-03-30,543.0
2005-03-31,512.0
2005-04-01,274.0
2005-04-02,363.0
2005-04-03,200.0
2005-04-04,406.0
2005-04-05,435.0
2005-04-06,521.0
2005-04-07,340.0
2005-04-08,317.0
2005-04-09,543.0
2005-04-10,519.0
2005-04-11,445.0
2005-04-12,396.0
2005-04-13,535.0
2005-04-14,588.0
2005-04-15,574.0
2005-04-16,294.0
2005-04-17,562.0
2005-04-18,438.0
2005-04-19,373.0
2005-04-20,247.0
2005-04-21,296.0
2005-04-22,490.0
2005-04-23,316.0
2005-04-24,597.0
2005-04-25,532.0
2005-04-26,638.0
2005-04-27,456.0
2005-04-28,481.0
2005-04-29,491.0
2005-04-30,456.0
2005-05-01,319.0
2005-05-02,369.0
2005-05-03,567.0
2005-05-04,427.0
2005-05-05,378.0
2005-05-06,183.0
2005-05-07,406.0
2005-05-08,311.0
2005-05-09,331.0
2005-05-10,357.0
2005-05-11,414.0
2005-05-12,670.0
2005-05-13,547.0
2005-05-14,507.0
2005-05-15,201.0
2005-05-16,609.0
2005-05-17,300.0
2005-05-18,297.0
2005-05-19,582.0
2005-05-20,588.0
2005-05-21,665.0
2005-05-22,714.0
2005-05-23,751.0
2005-05-24,750.0
2005-05-25,751.0
2005-05-26,748.0
2005-05-27,643.0
2005-05-28,414.0
2005-05-29,416.0
2005-05-30,598.0
2005-05-31,540.0
2005-06-01,618.0
2005-06-02,714.0
2005-06-03,739.0
2005-06-04,732.0
2005-06-05,710.0
2005-06-06,457.0
2005-06-07,543.0
2005-06-08,632.0
2005-06-09,633.0
2005-06-10,616.0
2005-06-11,776.0
2005-06-12,772.0
2005-06-13,742.0
2005-06-14,745.0
2005-06-15,718.0
2005-06-16,307.0
2005-06-17,320.0
2005-06-18,430.0
2005-06-19,677.0
2005-06-20,729.0
2005-06-21,623.0
2005-06-22,759.0
2005-06-23,757.0
2005-06-24,743.0
2005-06-25,559.0
2005-06-26,620.0
2005-06-27,571.0
2005-06-28,752.0
2005-06-29,754.0
2005-06-30,758.0
2005-07-01,761.0
2005-07-02,764.0
2005-07-03,760.0
2005-07-04,750.0
2005-07-05,750.0
2005-07-06,731.0
2005-07-07,748.0
2005-07-08,682.0
2005-07-09,505.0
2005-07-10,638.0
2005-07-11,729.0
2005-07-12,730.0
2005-07-13,741.0
2005-07-14,728.0
2005-07-15,710.0
2005-07-16,722.0
2005-07-17,727.0
2005-07-18,722.0
2005-07-19,725.0
2005-07-20,721.0
2005-07-21,396.0
2005-07-22,721.0
2005-07-23,695.0
2005-07-24,694.0
2005-07-25,707.0
2005-07-26,698.0
2005-07-27,694.0
2005-07-28,681.0
2005-07-29,576.0
2005-07-30,624.0
2005-07-31,581.0
2005-08-01,566.0
2005-08-02,648.0
2005-08-03,682.0
2005-08-04,679.0
2005-08-05,666.0
2005-08-06,668.0
2005-08-07,645.0
2005-08-08,574.0
2005-08-09,655.0
2005-08-10,655.0
2005-08-11,660.0
2005-08-12,635.0
2005-08-13,638.0
2005-08-14,619.0
2005-08-15,637.0
2005-08-16,614.0
2005-08-17,624.0
2005-08-18,598.0
2005-08-19,581.0
2005-08-20,596.0
2005-08-21,558.0
2005-08-22,503.0
2005-08-23,586.0
2005-08-24,553.0
2005-08-25,573.0
2005-08-26,596.0
2005-08-27,578.0
2005-08-28,548.0
2005-08-29,561.0
2005-08-30,559.0
2005-08-31,540.0
2005-09-01,534.0
2005-09-02,472.0
2005-09-03,466.0
2005-09-04,406.0
2005-09-05,526.0
2005-09-06,518.0
2005-09-07,457.0
2005-09-08,368.0
2005-09-09,423.0
2005-09-10,300.0
2005-09-11,450.0
2005-09-12,453.0
2005-09-13,489.0
2005-09-14,479.0
2005-09-15,477.0
2005-09-16,306.0
2005-09-17,420.0
2005-09-18,497.0
2005-09-19,497.0
2005-09-20,486.0
2005-09-21,482.0
2005-09-22,362.0
2005-09-23,107.0
2005-09-24,406.0
2005-09-25,481.0
2005-09-26,371.0
2005-09-27,420.0
2005-09-28,452.0
2005-09-29,450.0
2005-09-30,393.0
2005-10-01,49.0
2005-10-02,278.0
2005-10-03,315.0
2005-10-04,387.0
2005-10-05,404.0
2005-10-06,407.0
2005-10-07,273.0
2005-10-08,398.0
2005-10-09,397.0
2005-10-10,380.0
2005-10-11,278.0
2005-10-12,359.0
2005-10-13,371.0
2005-10-14,332.0
2005-10-15,197.0
2005-10-16,324.0
2005-10-17,347.0
2005-10-18,328.0
2005-10-19,238.0
2005-10-20,337.0
2005-10-21,337.0
2005-10-22,332.0
2005-10-23,314.0
2005-10-24,305.0
2005-10-25,277.0
2005-10-26,96.0
2005-10-27,271.0
2005-10-28,185.0
2005-10-29,252.0
2005-10-30,262.0
2005-10-31,251.0
2005-11-01,200.0
2005-11-02,75.0
2005-11-03,56.0
2005-11-04,150.0
2005-11-05,55.0
2005-11-06,68.0
2005-11-07,63.0
2005-11-08,192.0
2005-11-09,153.0
2005-11-10,156.0
2005-11-11,201.0
2005-11-12,185.0
2005-11-13,67.0
2005-11-14,252.0
2005-11-15,245.0
2005-11-16,247.0
2005-11-17,240.0
2005-11-18,247.0
2005-11-19,232.0
2005-11-20,233.0
2005-11-21,229.0
2005-11-22,209.0
2005-11-23,218.0
2005-11-24,112.0
2005-11-25,64.0
2005-11-26,224.0
2005-11-27,145.0
2005-11-28,40.0
2005-11-29,129.0
2005-11-30,120.0
2005-12-01,64.0
2005-12-02,134.0
2005-12-03,127.0
2005-12-04,175.0
2005-12-05,210.0
2005-12-06,189.0
2005-12-07,66.0
2005-12-08,107.0
2005-12-09,150.0
2005-12-10,200.0
2005-12-11,196.0
2005-12-12,201.0
2005-12-13,189.0
2005-12-14,203.0
2005-12-15,202.0
2005-12-16,207.0
2005-12-17,189.0
2005-12-18,102.0
2005-12-19,50.0
2005-12-20,50.0
2005-12-21,31.0
2005-12-22,29.0
2005-12-23,166.0
2005-12-24,118.0
2005-12-25,47.0
2005-12-26,124.0
2005-12-27,32.0
2005-12-28,29.0
2005-12-29,93.0
2005-12-30,18.0
2005-12-31,51.0
2006-01-01,51.0
2006-01-02,106.0
2006-01-03,45.0
2006-01-04,114.0
2006-01-05,146.0
2006-01-06,170.0
2006-01-07,83.0
2006-01-08,90.0
2006-01-09,118.0
2006-01-10,46.0
2006-01-11,168.0
2006-01-12,79.0
2006-01-13,82.0
2006-01-14,61.0
2006-01-15,205.0
2006-01-16,90.0
2006-01-17,34.0
2006-01-18,141.0
2006-01-19,167.0
2006-01-20,77.0
2006-01-21,178.0
2006-01-22,227.0
2006-01-23,238.0
2006-01-24,217.0
2006-01-25,192.0
2006-01-26,147.0
2006-01-27,167.0
2006-01-28,134.0
2006-01-29,88.0
2006-01-30,88.0
2006-01-31,88.0
2006-02-01,108.0
2006-02-02,225.0
2006-02-03,227.0
2006-02-04,243.0
2006-02-05,278.0
2006-02-06,233.0
2006-02-07,300.0
2006-02-08,297.0
2006-02-09,306.0
2006-02-10,307.0
2006-02-11,250.0
2006-02-12,312.0
2006-02-13,320.0
2006-02-14,258.0
2006-02-15,317.0
2006-02-16,296.0
2006-02-17,230.0
2006-02-18,326.0
2006-02-19,351.0
2006-02-20,352.0
2006-02-21,348.0
2006-02-22,349.0
2006-02-23,360.0
2006-02-24,367.0
2006-02-25,340.0
2006-02-26,114.0
2006-02-27,130.0
2006-02-28,188.0
2006-03-01,330.0
2006-03-02,401.0
2006-03-03,120.0
2006-03-04,328.0
2006-03-05,205.0
2006-03-06,190.0
2006-03-07,347.0
2006-03-08,165.0
2006-03-09,334.0
2006-03-10,243.0
2006-03-11,277.0
2006-03-12,404.0
2006-03-13,299.0
2006-03-14,336.0
2006-03-15,302.0
2006-03-16,274.0
2006-03-17,306.0
2006-03-18,414.0
2006-03-19,471.0
2006-03-20,194.0
2006-03-21,285.0
2006-03-22,336.0
2006-03-23,261.0
2006-03-24,366.0
2006-03-25,282.0
2006-03-26,538.0
2006-03-27,372.0
2006-03-28,335.0
2006-03-29,447.0
2006-03-30,263.0
2006-03-31,326.0
2006-04-01,469.0
2006-04-02,319.0
2006-04-03,152.0
2006-04-04,249.0
2006-04-05,207.0
2006-04-06,443.0
2006-04-07,391.0
2006-04-08,272.0
2006-04-09,228.0
2006-04-10,310.0
2006-04-11,290.0
2006-04-12,257.0
2006-04-13,538.0
2006-04-14,552.0
2006-04-15,230.0
2006-04-16,461.0
2006-04-17,460.0
2006-04-18,645.0
2006-04-19,641.0
2006-04-20,568.0
2006-04-21,376.0
2006-04-22,242.0
2006-04-23,648.0
2006-04-24,639.0
2006-04-25,571.0
2006-04-26,643.0
2006-04-27,637.0
2006-04-28,671.0
2006-04-29,623.0
2006-04-30,697.0
2006-05-01,689.0
2006-05-02,698.0
2006-05-03,685.0
2006-05-04,702.0
2006-05-05,679.0
2006-05-06,668.0
2006-05-07,319.0
2006-05-08,700.0
2006-05-09,708.0
2006-05-10,646.0
2006-05-11,698.0
2006-05-12,626.0
2006-05-13,707.0
2006-05-14,705.0
2006-05-15,534.0
2006-05-16,705.0
2006-05-17,695.0
2006-05-18,603.0
2006-05-19,382.0
2006-05-20,420.0
2006-05-21,422.0
2006-05-22,516.0
2006-05-23,513.0
2006-05-24,453.0
2006-05-25,587.0
2006-05-26,505.0
2006-05-27,433.0
2006-05-28,420.0
2006-05-29,723.0
2006-05-30,682.0
2006-05-31,533.0
2006-06-01,318.0
2006-06-02,235.0
2006-06-03,639.0
2006-06-04,724.0
2006-06-05,735.0
2006-06-06,736.0
2006-06-07,727.0
2006-06-08,751.0
2006-06-09,696.0
2006-06-10,736.0
2006-06-11,531.0
2006-06-12,543.0
2006-06-13,580.0
2006-06-14,585.0
2006-06-15,697.0
2006-06-16,733.0
2006-06-17,761.0
2006-06-18,749.0
2006-06-19,761.0
2006-06-20,755.0
2006-06-21,763.0
2006-06-22,767.0
2006-06-23,767.0
2006-06-24,760.0
2006-06-25,756.0
2006-06-26,751.0
2006-06-27,645.0
2006-06-28,311.0
2006-06-29,476.0
2006-06-30,684.0
2006-07-01,701.0
2006-07-02,686.0
2006-07-03,701.0
2006-07-04,704.0
2006-07-05,664.0
2006-07-06,661.0
2006-07-07,700.0
2006-07-08,667.0
2006-07-09,686.0
2006-07-10,679.0
2006-07-11,625.0
2006-07-12,665.0
2006-07-13,688.0
2006-07-14,692.0
2006-07-15,698.0
2006-07-16,702.0
2006-07-17,705.0
2006-07-18,716.0
2006-07-19,694.0
2006-07-20,700.0
2006-07-21,327.0
2006-07-22,542.0
2006-07-23,655.0
2006-07-24,613.0
2006-07-25,680.0
2006-07-26,705.0
2006-07-27,699.0
2006-07-28,673.0
2006-07-29,673.0
2006-07-30,708.0
2006-07-31,581.0
2006-08-01,683.0
2006-08-02,651.0
2006-08-03,655.0
2006-08-04,651.0
2006-08-05,511.0
2006-08-06,454.0
2006-08-07,543.0
2006-08-08,442.0
2006-08-09,655.0
2006-08-10,600.0
2006-08-11,651.0
2006-08-12,652.0
2006-08-13,651.0
2006-08-14,638.0
2006-08-15,606.0
2006-08-16,642.0
2006-08-17,662.0
2006-08-18,641.0
2006-08-19,634.0
2006-08-20,606.0
2006-08-21,626.0
2006-08-22,620.0
2006-08-23,604.0
2006-08-24,474.0
2006-08-25,619.0
2006-08-26,616.0
2006-08-27,592.0
2006-08-28,590.0
2006-08-29,546.0
2006-08-30,570.0
2006-08-31,555.0
2006-09-01,559.0
2006-09-02,495.0
2006-09-03,529.0
2006-09-04,553.0
2006-09-05,532.0
2006-09-06,478.0
2006-09-07,513.0
2006-09-08,416.0
2006-09-09,460.0
2006-09-10,496.0
2006-09-11,505.0
2006-09-12,485.0
2006-09-13,508.0
2006-09-14,521.0
2006-09-15,266.0
2006-09-16,459.0
2006-09-17,471.0
2006-09-18,344.0
2006-09-19,344.0
2006-09-20,412.0
2006-09-21,425.0
2006-09-22,473.0
2006-09-23,467.0
2006-09-24,465.0
2006-09-25,465.0
2006-09-26,452.0
2006-09-27,452.0
2006-09-28,441.0
2006-09-29,438.0
2006-09-30,415.0
2006-10-01,403.0
2006-10-02,394.0
2006-10-03,263.0
2006-10-04,320.0
2006-10-05,314.0
2006-10-06,302.0
2006-10-07,405.0
2006-10-08,386.0
2006-10-09,386.0
2006-10-10,391.0
2006-10-11,381.0
2006-10-12,390.0
2006-10-13,383.0
2006-10-14,354.0
2006-10-15,129.0
2006-10-16,151.0
2006-10-17,224.0
2006-10-18,282.0
2006-10-19,225.0
2006-10-20,283.0
2006-10-21,345.0
2006-10-22,341.0
2006-10-23,295.0
2006-10-24,319.0
2006-10-25,324.0
2006-10-26,297.0
2006-10-27,308.0
2006-10-28,312.0
2006-10-29,304.0
2006-10-30,301.0
2006-10-31,235.0
2006-11-01,174.0
2006-11-02,73.0
2006-11-03,60.0
2006-11-04,126.0
2006-11-05,124.0
2006-11-06,151.0
2006-11-07,176.0
2006-11-08,266.0
2006-11-09,259.0
2006-11-10,101.0
2006-11-11,235.0
2006-11-12,107.0
2006-11-13,78.0
2006-11-14,262.0
2006-11-15,108.0
2006-11-16,191.0
2006-11-17,127.0
2006-11-18,131.0
2006-11-19,128.0
2006-11-20,112.0
2006-11-21,109.0
2006-11-22,149.0
2006-11-23,190.0
2006-11-24,156.0
2006-11-25,83.0
2006-11-26,51.0
2006-11-27,190.0
2006-11-28,197.0
2006-11-29,219.0
2006-11-30,154.0
2006-12-01,153.0
2006-12-02,194.0
2006-12-03,207.0
2006-12-04,197.0
2006-12-05,188.0
2006-12-06,207.0
2006-12-07,146.0
2006-12-08,73.0
2006-12-09,152.0
2006-12-10,91.0
2006-12-11,79.0
2006-12-12,42.0
2006-12-13,36.0
2006-12-14,70.0
2006-12-15,190.0
2006-12-16,138.0
2006-12-17,207.0
2006-12-18,200.0
2006-12-19,184.0
2006-12-20,143.0
2006-12-21,50.0
2006-12-22,193.0
2006-12-23,91.0
2006-12-24,52.0
2006-12-25,55.0
2006-12-26,18.0
2006-12-27,158.0
2006-12-28,209.0
2006-12-29,152.0
2006-12-30,157.0
2006-12-31,153.0
2007-01-01,149.0
2007-01-02,95.0
2007-01-03,30.0
2007-01-04,113.0
2007-01-05,184.0
2007-01-06,79.0
2007-01-07,167.0
2007-01-08,125.0
2007-01-09,101.0
2007-01-10,149.0
2007-01-11,165.0
2007-01-12,221.0
2007-01-13,162.0
2007-01-14,224.0
2007-01-15,229.0
2007-01-16,165.0
2007-01-17,234.0
2007-01-18,205.0
2007-01-19,181.0
2007-01-20,213.0
2007-01-21,190.0
2007-01-22,243.0
2007-01-23,240.0
2007-01-24,245.0
2007-01-25,252.0
2007-01-26,240.0
2007-01-27,259.0
2007-01-28,253.0
2007-01-29,256.0
2007-01-30,268.0
2007-01-31,271.0
2007-02-01,276.0
2007-02-02,222.0
2007-02-03,173.0
2007-02-04,257.0
2007-02-05,152.0
2007-02-06,224.0
2007-02-07,67.0
2007-02-08,114.0
2007-02-09,200.0
2007-02-10,49.0
2007-02-11,126.0
2007-02-12,167.0
2007-02-13,236.0
2007-02-14,208.0
2007-02-15,195.0
2007-02-16,244.0
2007-02-17,311.0
2007-02-18,281.0
2007-02-19,268.0
2007-02-20,117.0
2007-02-21,145.0
2007-02-22,147.0
2007-02-23,307.0
2007-02-24,184.0
2007-02-25,257.0
2007-02-26,262.0
2007-02-27,209.0
2007-02-28,294.0
2007-03-01,259.0
2007-03-02,221.0
2007-03-03,373.0
2007-03-04,360.0
2007-03-05,312.0
2007-03-06,413.0
2007-03-07,181.0
2007-03-08,375.0
2007-03-09,119.0
2007-03-10,358.0
2007-03-11,383.0
2007-03-12,348.0
2007-03-13,368.0
2007-03-14,440.0
2007-03-15,463.0
2007-03-16,473.0
2007-03-17,473.0
2007-03-18,475.0
2007-03-19,292.0
2007-03-20,385.0
2007-03-21,494.0
2007-03-22,425.0
2007-03-23,477.0
2007-03-24,388.0
2007-03-25,290.0
2007-03-26,109.0
2007-03-27,337.0
2007-03-28,533.0
2007-03-29,497.0
2007-03-30,495.0
2007-03-31,405.0
2007-04-01,252.0
2007-04-02,558.0
2007-04-03,363.0
2007-04-04,403.0
2007-04-05,549.0
2007-04-06,534.0
2007-04-07,389.0
2007-04-08,475.0
2007-04-09,460.0
2007-04-10,610.0
2007-04-11,289.0
2007-04-12,536.0
2007-04-13,543.0
2007-04-14,186.0
2007-04-15,587.0
2007-04-16,517.0
2007-04-17,383.0
2007-04-18,380.0
2007-04-19,291.0
2007-04-20,570.0
2007-04-21,125.0
2007-04-22,420.0
2007-04-23,639.0
2007-04-24,567.0
2007-04-25,567.0
2007-04-26,615.0
2007-04-27,629.0
2007-04-28,633.0
2007-04-29,534.0
2007-04-30,648.0
2007-05-01,242.0
2007-05-02,447.0
2007-05-03,358.0
2007-05-04,426.0
2007-05-05,714.0
2007-05-06,658.0
2007-05-07,715.0
2007-05-08,622.0
2007-05-09,670.0
2007-05-10,641.0
2007-05-11,641.0
2007-05-12,660.0
2007-05-13,727.0
2007-05-14,719.0
2007-05-15,693.0
2007-05-16,696.0
2007-05-17,702.0
2007-05-18,694.0
2007-05-19,594.0
2007-05-20,451.0
2007-05-21,722.0
2007-05-22,753.0
2007-05-23,734.0
2007-05-24,647.0
2007-05-25,595.0
2007-05-26,709.0
2007-05-27,657.0
2007-05-28,755.0
2007-05-29,760.0
2007-05-30,747.0
2007-05-31,743.0
2007-06-01,669.0
2007-06-02,651.0
2007-06-03,663.0
2007-06-04,329.0
2007-06-05,420.0
2007-06-06,509.0
2007-06-07,691.0
2007-06-08,713.0
2007-06-09,363.0
2007-06-10,562.0
2007-06-11,709.0
2007-06-12,750.0
2007-06-13,722.0
2007-06-14,741.0
2007-06-15,751.0
2007-06-16,753.0
2007-06-17,754.0
2007-06-18,758.0
2007-06-19,728.0
2007-06-20,747.0
2007-06-21,746.0
2007-06-22,722.0
2007-06-23,753.0
2007-06-24,754.0
2007-06-25,753.0
2007-06-26,716.0
2007-06-27,724.0
2007-06-28,639.0
2007-06-29,632.0
2007-06-30,720.0
2007-07-01,691.0
2007-07-02,703.0
2007-07-03,713.0
2007-07-04,696.0
2007-07-05,698.0
2007-07-06,467.0
2007-07-07,654.0
2007-07-08,728.0
2007-07-09,705.0
2007-07-10,655.0
2007-07-11,372.0
2007-07-12,647.0
2007-07-13,699.0
2007-07-14,720.0
2007-07-15,672.0
2007-07-16,706.0
2007-07-17,549.0
2007-07-18,337.0
2007-07-19,640.0
2007-07-20,601.0
2007-07-21,663.0
2007-07-22,687.0
2007-07-23,687.0
2007-07-24,699.0
2007-07-25,692.0
2007-07-26,701.0
2007-07-27,695.0
2007-07-28,688.0
2007-07-29,687.0
2007-07-30,684.0
2007-07-31,685.0
2007-08-01,676.0
2007-08-02,650.0
2007-08-03,685.0
2007-08-04,683.0
2007-08-05,637.0
2007-08-06,661.0
2007-08-07,668.0
2007-08-08,654.0
2007-08-09,627.0
2007-08-10,660.0
2007-08-11,650.0
2007-08-12,660.0
2007-08-13,662.0
2007-08-14,661.0
2007-08-15,645.0
2007-08-16,642.0
2007-08-17,637.0
2007-08-18,539.0
2007-08-19,476.0
2007-08-20,557.0
2007-08-21,622.0
2007-08-22,618.0
2007-08-23,621.0
2007-08-24,620.0
2007-08-25,609.0
2007-08-26,594.0
2007-08-27,599.0
2007-08-28,596.0
2007-08-29,506.0
2007-08-30,452.0
2007-08-31,508.0
2007-09-01,561.0
2007-09-02,561.0
2007-09-03,557.0
2007-09-04,339.0
2007-09-05,544.0
2007-09-06,547.0
2007-09-07,534.0
2007-09-08,531.0
2007-09-09,537.0
2007-09-10,540.0
2007-09-11,532.0
2007-09-12,491.0
2007-09-13,500.0
2007-09-14,464.0
2007-09-15,492.0
2007-09-16,440.0
2007-09-17,490.0
2007-09-18,464.0
2007-09-19,187.0
2007-09-20,459.0
2007-09-21,478.0
2007-09-22,225.0
2007-09-23,441.0
2007-09-24,470.0
2007-09-25,461.0
2007-09-26,457.0
2007-09-27,450.0
2007-09-28,117.0
2007-09-29,429.0
2007-09-30,170.0
2007-10-01,370.0
2007-10-02,411.0
2007-10-03,352.0
2007-10-04,268.0
2007-10-05,190.0
2007-10-06,365.0
2007-10-07,395.0
2007-10-08,393.0
2007-10-09,114.0
2007-10-10,271.0
2007-10-11,185.0
2007-10-12,183.0
2007-10-13,326.0
2007-10-14,375.0
2007-10-15,150.0
2007-10-16,126.0
2007-10-17,214.0
2007-10-18,50.0
2007-10-19,27.0
2007-10-20,281.0
2007-10-21,335.0
2007-10-22,338.0
2007-10-23,331.0
2007-10-24,328.0
2007-10-25,182.0
2007-10-26,180.0
2007-10-27,310.0
2007-10-28,283.0
2007-10-29,150.0
2007-10-30,234.0
2007-10-31,282.0
2007-11-01,288.0
2007-11-02,284.0
2007-11-03,284.0
2007-11-04,281.0
2007-11-05,276.0
2007-11-06,276.0
2007-11-07,276.0
2007-11-08,269.0
2007-11-09,189.0
2007-11-10,61.0
2007-11-11,254.0
2007-11-12,61.0
2007-11-13,218.0
2007-11-14,199.0
2007-11-15,152.0
2007-11-16,52.0
2007-11-17,126.0
2007-11-18,186.0
2007-11-19,164.0
2007-11-20,239.0
2007-11-21,210.0
2007-11-22,228.0
2007-11-23,227.0
2007-11-24,111.0
2007-11-25,191.0
2007-11-26,117.0
2007-11-27,224.0
2007-11-28,145.0
2007-11-29,228.0
2007-11-30,216.0
2007-12-01,200.0
2007-12-02,48.0
2007-12-03,91.0
2007-12-04,158.0
2007-12-05,71.0
2007-12-06,32.0
2007-12-07,96.0
2007-12-08,102.0
2007-12-09,113.0
2007-12-10,173.0
2007-12-11,170.0
2007-12-12,197.0
2007-12-13,154.0
2007-12-14,123.0
2007-12-15,96.0
2007-12-16,113.0
2007-12-17,77.0
2007-12-18,89.0
2007-12-19,28.0
2007-12-20,188.0
2007-12-21,172.0
2007-12-22,94.0
2007-12-23,58.0
2007-12-24,178.0
2007-12-25,141.0
2007-12-26,182.0
2007-12-27,45.0
2007-12-28,79.0
2007-12-29,82.0
2007-12-30,185.0
2007-12-31,196.0
2008-01-01,145.0
2008-01-02,207.0
2008-01-03,69.0
2008-01-04,35.0
2008-01-05,92.0
2008-01-06,117.0
2008-01-07,159.0
2008-01-08,99.0
2008-01-09,112.0
2008-01-10,164.0
2008-01-11,153.0
2008-01-12,162.0
2008-01-13,166.0
2008-01-14,164.0
2008-01-15,218.0
2008-01-16,224.0
2008-01-17,228.0
2008-01-18,232.0
2008-01-19,198.0
2008-01-20,191.0
2008-01-21,183.0
2008-01-22,245.0
2008-01-23,244.0
2008-01-24,62.0
2008-01-25,138.0
2008-01-26,109.0
2008-01-27,134.0
2008-01-28,194.0
2008-01-29,151.0
2008-01-30,150.0
2008-01-31,99.0
2008-02-01,206.0
2008-02-02,117.0
2008-02-03,253.0
2008-02-04,277.0
2008-02-05,249.0
2008-02-06,211.0
2008-02-07,215.0
2008-02-08,146.0
2008-02-09,280.0
2008-02-10,213.0
2008-02-11,275.0
2008-02-12,312.0
2008-02-13,327.0
2008-02-14,323.0
2008-02-15,328.0
2008-02-16,325.0
2008-02-17,342.0
2008-02-18,349.0
2008-02-19,275.0
2008-02-20,275.0
2008-02-21,168.0
2008-02-22,171.0
2008-02-23,205.0
2008-02-24,181.0
2008-02-25,266.0
2008-02-26,343.0
2008-02-27,328.0
2008-02-28,387.0
2008-02-29,229.0
2008-03-01,365.0
2008-03-02,412.0
2008-03-03,344.0
2008-03-04,429.0
2008-03-05,438.0
2008-03-06,350.0
2008-03-07,231.0
2008-03-08,439.0
2008-03-09,419.0
2008-03-10,340.0
2008-03-11,427.0
2008-03-12,284.0
2008-03-13,263.0
2008-03-14,244.0
2008-03-15,321.0
2008-03-16,481.0
2008-03-17,197.0
2008-03-18,266.0
2008-03-19,174.0
2008-03-20,440.0
2008-03-21,492.0
2008-03-22,497.0
2008-03-23,362.0
2008-03-24,325.0
2008-03-25,465.0
2008-03-26,289.0
2008-03-27,520.0
2008-03-28,189.0
2008-03-29,501.0
2008-03-30,440.0
2008-03-31,535.0
2008-04-01,529.0
2008-04-02,562.0
2008-04-03,553.0
2008-04-04,480.0
2008-04-05,258.0
2008-04-06,438.0
2008-04-07,519.0
2008-04-08,347.0
2008-04-09,421.0
2008-04-10,586.0
2008-04-11,584.0
2008-04-12,600.0
2008-04-13,519.0
2008-04-14,135.0
2008-04-15,569.0
2008-04-16,611.0
2008-04-17,612.0
2008-04-18,609.0
2008-04-19,442.0
2008-04-20,455.0
2008-04-21,421.0
2008-04-22,166.0
2008-04-23,439.0
2008-04-24,550.0
2008-04-25,386.0
2008-04-26,586.0
2008-04-27,531.0
2008-04-28,644.0
2008-04-29,449.0
2008-04-30,496.0
2008-05-01,683.0
2008-05-02,495.0
2008-05-03,687.0
2008-05-04,604.0
2008-05-05,682.0
2008-05-06,624.0
2008-05-07,699.0
2008-05-08,604.0
2008-05-09,693.0
2008-05-10,572.0
2008-05-11,657.0
2008-05-12,712.0
2008-05-13,446.0
2008-05-14,584.0
2008-05-15,720.0
2008-05-16,731.0
2008-05-17,714.0
2008-05-18,701.0
2008-05-19,686.0
2008-05-20,370.0
2008-05-21,503.0
2008-05-22,487.0
2008-05-23,320.0
2008-05-24,284.0
2008-05-25,264.0
2008-05-26,433.0
2008-05-27,307.0
2008-05-28,154.0
2008-05-29,176.0
2008-05-30,663.0
2008-05-31,578.0
2008-06-01,709.0
2008-06-02,667.0
2008-06-03,448.0
2008-06-04,722.0
2008-06-05,539.0
2008-06-06,738.0
2008-06-07,760.0
2008-06-08,762.0
2008-06-09,540.0
2008-06-10,684.0
2008-06-11,767.0
2008-06-12,778.0
2008-06-13,775.0
2008-06-14,767.0
2008-06-15,760.0
2008-06-16,754.0
2008-06-17,757.0
2008-06-18,761.0
2008-06-19,762.0
2008-06-20,667.0
2008-06-21,247.0
2008-06-22,737.0
2008-06-23,719.0
2008-06-24,740.0
2008-06-25,747.0
2008-06-26,738.0
2008-06-27,745.0
2008-06-28,665.0
2008-06-29,705.0
2008-06-30,726.0
2008-07-01,690.0
2008-07-02,720.0
2008-07-03,685.0
2008-07-04,641.0
2008-07-05,665.0
2008-07-06,726.0
2008-07-07,743.0
2008-07-08,744.0
2008-07-09,748.0
2008-07-10,743.0
2008-07-11,750.0
2008-07-12,694.0
2008-07-13,718.0
2008-07-14,649.0
2008-07-15,625.0
2008-07-16,678.0
2008-07-17,666.0
2008-07-18,737.0
2008-07-19,694.0
2008-07-20,686.0
2008-07-21,547.0
2008-07-22,653.0
2008-07-23,720.0
2008-07-24,698.0
2008-07-25,651.0
2008-07-26,682.0
2008-07-27,672.0
2008-07-28,691.0
2008-07-29,602.0
2008-07-30,688.0
2008-07-31,651.0
2008-08-01,672.0
2008-08-02,668.0
2008-08-03,667.0
2008-08-04,683.0
2008-08-05,680.0
2008-08-06,443.0
2008-08-07,571.0
2008-08-08,670.0
2008-08-09,653.0
2008-08-10,655.0
2008-08-11,657.0
2008-08-12,650.0
2008-08-13,647.0
2008-08-14,647.0
2008-08-15,615.0
2008-08-16,536.0
2008-08-17,584.0
2008-08-18,566.0
2008-08-19,528.0
2008-08-20,305.0
2008-08-21,611.0
2008-08-22,619.0
2008-08-23,596.0
2008-08-24,572.0
2008-08-25,543.0
2008-08-26,596.0
2008-08-27,588.0
2008-08-28,574.0
2008-08-29,564.0
2008-08-30,558.0
2008-08-31,550.0
2008-09-01,558.0
2008-09-02,538.0
2008-09-03,546.0
2008-09-04,535.0